Skip to main content.
NOAA NWS Hourly Roundups by Site

NOAA NWS Hourly Roundups by Site

Regional Weather Roundup for Omaha, NE

To Select Another Site Choose from List

Select Site:  

000
ASUS43 KOAX 171510
RWRNE

WEATHER ROUNDUP FOR NEBRASKA
NATIONAL WEATHER SERVICE OMAHA NE
900 AM CST MON DEC 17 2018

NOTES: SATELLITE DATA IS BEING USED TO AUGMENT CLOUD COVER ABOVE
       12000 FEET.
       "FAIR" INDICATES FEW OR NO CLOUDS BELOW 12,000 FEET WITH NO
       SIGNIFICANT WEATHER AND/OR OBSTRUCTIONS TO VISIBILITY.


NEZ001>004-019>022-054>056-171600-
NEBRASKA PANHANDLE

CITY           SKY/WX    TMP DP  RH WIND       PRES   REMARKS
SCOTTSBLUFF    CLEAR     20  16  84 CALM      30.09R
ALLIANCE       CLEAR     30  20  66 W7        30.05F WCI  23
CHADRON        CLEAR     25  21  85 S5        30.02F WCI  19
GORDON         FAIR      34  24  68 W6        30.03S WCI  28
KIMBALL        CLEAR     25  16  68 W8        30.10R WCI  16
SIDNEY         CLEAR     24  17  74 SW7       30.09S WCI  16
$$

NEZ057>060-069>072-079>082-171600-
SOUTHWEST NEBRASKA

CITY           SKY/WX    TMP DP  RH WIND       PRES   REMARKS
NORTH PLATTE   CLEAR     25  22  88 S3        30.14R
IMPERIAL       CLEAR     26  17  68 W3        30.13S
LEXINGTON      FAIR      31  26  83 SE5       30.17F WCI  26
MCCOOK         CLEAR     26  23  88 S3        30.17S
OGALLALA       CLEAR     23  20  87 SW3       30.12S
$$

NEZ005>010-023>029-035>040-094-171600-
NORTH CENTRAL NEBRASKA

CITY           SKY/WX    TMP DP  RH WIND       PRES   REMARKS
VALENTINE      CLEAR     26  22  84 SW6       30.03S WCI  19
AINSWORTH      CLEAR     32  25  74 SW12      30.05R WCI  23
BROKEN BOW     FAIR      30  24  78 SE3       30.13S
O`NEILL        FAIR      32  27  80 S10       30.09S WCI  24
ORD            FAIR      28  25  88 SE3       30.13F
THEDFORD       CLEAR     31  24  73 S5        30.09R WCI  27
$$

NEZ041-046>049-061>064-073>077-083>087-171600-
SOUTH CENTRAL NEBRASKA

CITY           SKY/WX    TMP DP  RH WIND       PRES   REMARKS
GRAND ISLAND   CLEAR     35  28  75 S6        30.19F WCI  30
AURORA         CLOUDY    34  28  80 S8        30.20S WCI  27
HASTINGS       CLEAR     34  26  72 S6        30.21S WCI  29
HEBRON         CLOUDY    29  27  92 CALM      30.26R
HOLDREGE       CLOUDY    32  28  84 S7        30.19S WCI  25
KEARNEY        CLOUDY    33  27  78 SW12      30.19F WCI  24
YORK           CLOUDY    32  28  86 S9        30.23R WCI  24
$$

NEZ011>018-030>034-042>045-171600-
NORTHEAST NEBRASKA

CITY           SKY/WX    TMP DP  RH WIND       PRES   REMARKS
NORFOLK        CLOUDY    37  29  72 S15       30.16F WCI  28
ALBION         CLOUDY    32  28  84 S5        30.17S WCI  28
BLAIR          CLOUDY    31  28  86 SE6       30.25R WCI  26
COLUMBUS       CLOUDY    30  29  96 SE3       30.22S
FREMONT        CLOUDY    33  31  94 E3        30.24S
TEKAMAH        CLOUDY    25  24  96 SE7       30.26R WCI  17
WAYNE          CLOUDY    31  26  83 S9        30.18S WCI  23
$$

NEZ050>053-065>068-078-088>093-171600-
SOUTHEAST NEBRASKA

CITY           SKY/WX    TMP DP  RH WIND       PRES   REMARKS
LINCOLN        CLOUDY    27  24  89 CALM      30.28R
OMAHA EPPLEY   CLOUDY    28  25  88 SE6       30.28R WCI  22
BEATRICE       CLOUDY    32  28  86 CALM      30.27S
FALLS CITY     CLOUDY    28  26  92 CALM      30.29R
NEBRASKA CITY  CLOUDY    32  28  84 S7        30.27S WCI  26
PLATTSMOUTH    CLOUDY    30  28  89 SE3       30.27R
$$

NEZ044-045-051>053-067-171600-
OMAHA AREA

CITY           SKY/WX    TMP DP  RH WIND       PRES   REMARKS
OMAHA EPPLEY   CLOUDY    28  25  88 SE6       30.28R WCI  22
BLAIR          CLOUDY    31  28  86 SE6       30.25R WCI  26
FREMONT        CLOUDY    33  31  94 E3        30.24S
MILLARD        CLOUDY    29  27  91 SE3       30.28R
OFFUTT AFB     CLOUDY    27  27 100 CALM      30.27R
PLATTSMOUTH    CLOUDY    30  28  89 SE3       30.27R
WAHOO          FAIR      28  28  99 S5        30.25S WCI  23
$$


 

View Past Reports for Omaha, NE.

Products Courtesy of NOAA-NWS
NWS Information Parsing Script by Ken True at Saratoga Weather - Script by SE Lincoln Weather.